#timestamp,LO_Frequency,Hit,StdDev 
1540267215.2,286047002.3,N
1540267235.0,286047002.8,N
1540267235.9,286047002.8,N
1540267255.8,286047002.8,N
1540267275.6,286046999.8,N
1540267295.5,286047002.7,N
1540267315.3,286047000.1,N
1540267335.1,286047000.3,N
1540267355.9,286047000.2,N
1540267375.7,286046999.8,N
1540267395.5,286047000.6,N
1540267415.4,286047000.1,N
1540267435.2,286047000.2,N
1540267455.0,286047000.3,N
1540267456.0,286047000.3,N
1540267475.8,286047002.3,N
1540267495.6,286046999.7,N
1540267515.5,286047000.1,N
1540267535.3,286047000.3,N
1540267555.1,286047000.4,N
1540267575.9,286047000.3,N
1540267595.7,286047000.5,N
1540267615.6,286046999.8,N
1540267635.2,286047000.3,N
1540267655.1,286047002.3,N
1540267656.0,286047002.3,N
1540267675.8,286047000.1,N
1540267695.7,286047002.5,N
1540267715.5,286047002.1,N
1540267735.3,286047000.6,N
1540267755.2,286047000.5,N
1540267775.6,286047002.7,N
1540267795.4,286047002.8,N
1540267815.3,286046999.9,N
1540267835.1,286046998.3,N
1540267836.0,286046998.3,N
1540267855.8,286046998.1,N
1540267875.7,286047001.2,N
1540267895.5,286047000.3,N
1540267915.3,286047002.7,N
1540267935.2,286046999.8,N
1540267955.0,286047000.3,N
1540267955.9,286047000.3,N
1540267975.8,286047000.2,N
1540267995.6,286047000.4,N
1540268015.4,286046999.7,N
1540268035.3,286046998.1,N
1540268055.1,286047000.2,N
1540268075.8,286047002.1,N
1540268095.7,286047002.3,N
1540268115.5,286047001.9,N
1540268135.4,286047001.6,N
1540268155.2,286047002.2,N
1540268175.0,286047001.4,N
1540268175.9,286047001.4,N
1540268195.8,286047000.2,N
1540268215.6,286047000.1,N
1540268235.5,286047000.7,N
1540268255.3,286047000.3,N
1540268275.1,286047000.2,N
1540268295.9,286046999.7,N
1540268315.7,286046999.8,N
1540268335.5,286047002.0,N
1540268355.4,286047001.3,N
1540268375.2,286047002.3,N
1540268395.0,286046999.8,N
1540268396.0,286046999.8,N
1540268415.8,286046999.8,N
1540268435.6,286047002.0,N
1540268455.5,286046999.8,N
1540268475.3,286047001.9,N
1540268495.7,286046999.8,N
1540268515.5,286046999.7,N
1540268535.3,286047002.4,N
1540268555.2,286047000.0,N
1540268575.0,286047002.7,N
1540268575.9,286047002.7,N
1540268595.7,286047002.5,N
1540268615.6,286047001.8,N
1540268635.4,286047001.8,N
1540268655.6,286047002.2,N
1540268675.4,286047001.4,N
1540268695.2,286047001.8,N
1540268715.1,286047004.2,Y
1540268716.0,286047004.2,P
1540268735.8,286046999.9,N
1540268755.7,286047000.1,N
1540268775.5,286047001.8,N
1540268795.4,286047002.2,N
1540268815.2,286047000.7,N
1540268835.1,286047002.3,N
1540268836.0,286047002.3,N
1540268855.8,286047002.6,N
1540268875.6,286047001.0,N
1540268895.5,286047000.1,N
1540268915.3,286047000.1,N
1540268935.2,286047000.6,N
1540268955.9,286047000.0,N
1540268975.7,286047000.3,N
1540268995.6,286047001.6,N
1540269015.4,286047001.6,N
1540269035.2,286047004.1,Y
1540269055.1,286047001.7,P
1540269056.0,286047001.7,P
1540269075.8,286047001.5,P
1540269095.7,286047002.5,Y
1540269115.5,286046999.7,P
1540269135.3,286047002.0,N
1540269155.2,286047000.0,N
1540269175.0,286047002.4,N
1540269175.9,286047002.4,N
1540269195.7,286047002.1,N
1540269215.6,286046999.7,N
1540269235.4,286047002.7,N
1540269255.3,286047002.2,N
1540269275.1,286047002.3,N
1540269276.0,286047002.3,N
1540269295.8,286046999.9,N
1540269315.7,286047002.7,N
1540269335.5,286047001.9,N
1540269355.3,286047001.3,N
1540269375.2,286047001.6,N
1540269395.0,286047002.2,N
1540269415.5,286047001.7,N
1540269435.4,286047002.6,N
1540269455.2,286047002.3,N
1540269475.1,286047002.2,N
1540269476.0,286047002.2,N
1540269495.8,286047002.6,N
1540269515.6,286047000.2,N
1540269535.5,286047000.1,N
1540269555.3,286047000.2,N
1540269575.1,286047000.0,N
1540269595.9,286047002.7,N
1540269615.7,286047000.2,N
1540269635.6,286047000.2,N
1540269655.4,286047001.0,N
1540269675.2,286046999.9,N
1540269695.1,286047002.3,N
1540269696.0,286047002.3,N
1540269715.8,286047002.5,N
1540269735.6,286047002.6,N
1540269755.5,286047002.2,N
1540269775.3,286047002.2,N
1540269795.2,286047002.4,N
1540269815.9,286047000.7,N
1540269835.7,286047000.4,N
1540269855.6,286047000.6,N
1540269875.4,286047000.9,N
1540269895.2,286047000.1,N
1540269915.1,286046998.6,N
1540269916.0,286046998.6,N
1540269935.8,286047000.7,N
1540269955.7,286046998.1,N
1540269975.5,286047001.1,N
1540269995.3,286047001.0,N
1540270015.2,286046998.1,N
1540270035.3,286046998.1,N
1540270055.1,286046998.3,N
1540270075.9,286046999.5,N
1540270095.7,286046998.1,N
1540270115.6,286046998.6,N
1540270135.4,286046998.7,N
1540270155.2,286046996.9,N
1540270175.1,286046998.1,N
1540270176.0,286046998.1,N
1540270195.8,286046999.0,N
1540270215.6,286046999.0,N
1540270235.5,286046998.2,N
1540270255.3,286046997.1,N
1540270275.2,286046999.6,N
1540270295.9,286046998.9,N
1540270315.7,286046999.2,N
1540270335.6,286046998.1,N
1540270355.4,286047000.8,N
1540270375.2,286046998.9,N
1540270395.1,286046996.9,N
1540270396.0,286046996.9,N
1540270415.8,286046996.7,N
1540270435.7,286046999.4,N
1540270455.5,286046997.1,N
1540270475.3,286046996.9,N
1540270495.2,286046997.3,N
1540270515.0,286046997.3,N
1540270515.9,286046997.3,N
1540270535.8,286046999.4,N
1540270555.6,286046997.0,N
1540270575.4,286046997.0,N
1540270595.3,286046998.9,N
1540270615.1,286046998.9,N
1540270635.9,286046997.0,N
1540270655.7,286046997.2,N
1540270675.5,286046997.3,N
1540270695.4,286046996.9,N
1540270715.2,286046996.8,N
1540270735.1,286046996.7,Y
1540270736.0,286046996.7,P
1540270755.8,286046999.3,N
1540270775.6,286046998.2,N
1540270795.5,286046998.1,N
